N2WH Weather Reports


time (UTC)temp
C
wind
direction
speed
KPH
gust
KPH
rain 1hr
cm
rain 24hr
cm
rain mn
cm
humidity
%
barometer
mb
20260506143208 18 188 1.6 3.2 0.00 0.00 0.00 74 1010.5
20260506142707 18 226 3.2 4.8 0.00 0.00 0.00 74 1010.4
20260506142204 18 217 4.8 4.8 0.00 0.00 0.00 74 1010.2
20260506141702 18 121 1.6 3.2 0.00 0.00 0.00 74 1010.5
20260506141200 18 144 4.8 8.0 0.00 0.00 0.00 74 1010.3
20260506140657 18 178 3.2 3.2 0.00 0.00 0.00 75 1010.5
20260506140154 18 161 1.6 3.2 0.00 0.00 0.00 75 1010.4
20260506135651 18 161 3.2 3.2 0.00 0.00 0.00 74 1010.5
20260506135147 18 174 1.6 1.6 0.00 0.00 0.00 74 1010.5
20260506134644 18 199 1.6 1.6 0.00 0.00 0.00 75 1010.5
20260506134140 18 162 1.6 3.2 0.00 0.00 0.00 74 1010.6
20260506133637 18 257 3.2 4.8 0.00 0.00 0.00 74 1010.5
20260506133134 18 198 3.2 3.2 0.00 0.00 0.00 74 1010.7
20260506132632 18 228 3.2 4.8 0.00 0.00 0.00 74 1010.7
20260506132128 18 201 0.0 1.6 0.00 0.00 0.00 75 1010.4
20260506131626 18 143 6.4 9.7 0.00 0.00 0.00 75 1010.3
20260506131122 18 224 3.2 3.2 0.00 0.00 0.00 77 1010.6
20260506130619 18 133 3.2 4.8 0.00 0.00 0.00 77 1010.7
20260506130116 18 144 0.0 1.6 0.00 0.00 0.00 78 1010.5
20260506125614 18 163 3.2 3.2 0.00 0.00 0.00 78 1010.5
20260506125112 18 142 1.6 1.6 0.00 0.00 0.00 78 1010.3
20260506124609 18 167 3.2 4.8 0.00 0.00 0.00 77 1010.0
20260506124107 18 168 0.0 0.0 0.00 0.00 0.00 78 1010.2
20260506123604 17 121 1.6 1.6 0.00 0.00 0.00 79 1010.1
20260506123103 17 132 1.6 1.6 0.00 0.00 0.00 79 1010.0
20260506122559 17 154 1.6 1.6 0.00 0.00 0.00 79 1010.1
20260506122057 17 232 0.0 1.6 0.00 0.00 0.00 79 1010.4
20260506121554 17 148 0.0 0.0 0.00 0.00 0.00 79 1010.5
20260506121050 17 143 0.0 0.0 0.00 0.00 0.00 80 1010.5
20260506120549 17 137 0.0 0.0 0.00 0.00 0.00 80 1010.5
20260506120046 17 143 1.6 1.6 0.00 0.00 0.00 80 1010.8
20260506115544 17 180 1.6 3.2 0.00 0.00 0.00 80 1010.4
20260506115042 17 144 1.6 1.6 0.00 0.00 0.00 80 1010.8
20260506114539 17 177 1.6 3.2 0.00 0.00 0.00 80 1010.8
20260506114037 17 275 4.8 4.8 0.00 0.00 0.00 79 1010.6
20260506113535 17 154 0.0 1.6 0.00 0.00 0.00 80 1011.1
20260506113032 17 269 1.6 3.2 0.00 0.00 0.00 80 1010.6
20260506112528 17 136 1.6 1.6 0.00 0.00 0.00 80 1010.6
20260506112026 17 120 1.6 3.2 0.00 0.00 0.00 80 1010.7
20260506111524 17 164 1.6 1.6 0.00 0.00 0.00 80 1010.5
20260506111021 17 40 0.0 0.0 0.00 0.00 0.00 80 1010.6
20260506110518 17 233 4.8 4.8 0.00 0.00 0.00 80 1010.6
20260506110015 17 221 1.6 1.6 0.00 0.00 0.00 80 1010.4
20260506105511 17 239 1.6 3.2 0.00 0.00 0.00 80 1010.8
20260506105009 17 199 1.6 1.6 0.00 0.00 0.00 82 1010.7
20260506104507 17 208 1.6 1.6 0.00 0.00 0.00 82 1010.3
20260506104005 16 180 3.2 3.2 0.00 0.00 0.00 82 1010.4
20260506103501 16 221 3.2 4.8 0.00 0.00 0.00 83 1010.6
20260506102958 16 138 0.0 1.6 0.00 0.00 0.00 83 1010.7
20260506102456 16 180 1.6 1.6 0.00 0.00 0.00 83 1010.6
20260506101953 16 166 0.0 1.6 0.00 0.00 0.00 83 1010.3
20260506101450 16 133 0.0 1.6 0.00 0.00 0.00 83 1010.3
20260506100947 16 250 0.0 1.6 0.00 0.00 0.00 83 1010.4
20260506100446 16 153 0.0 1.6 0.00 0.00 0.00 83 1010.5
20260506095943 16 145 0.0 0.0 0.00 0.00 0.00 83 1010.2
20260506095442 16 153 1.6 1.6 0.00 0.00 0.00 83 1010.3
20260506094937 16 152 1.6 1.6 0.00 0.00 0.00 83 1010.0
20260506094436 16 143 0.0 0.0 0.00 0.00 0.00 83 1010.3
20260506093933 16 155 1.6 1.6 0.00 0.00 0.00 83 1010.1
20260506093431 16 131 1.6 1.6 0.00 0.00 0.00 82 1010.3
20260506092928 16 186 1.6 3.2 0.00 0.00 0.00 83 1010.2
20260506092426 16 195 3.2 3.2 0.00 0.00 0.00 83 1010.3
20260506091922 16 217 3.2 3.2 0.00 0.00 0.00 83 1010.2
20260506091421 16 225 1.6 3.2 0.00 0.00 0.00 83 1010.4
20260506090918 16 152 0.0 1.6 0.00 0.00 0.00 83 1010.4
20260506090415 16 141 1.6 3.2 0.00 0.00 0.00 83 1010.4
20260506085912 16 136 0.0 0.0 0.00 0.00 0.00 83 1010.6
20260506085409 16 135 0.0 0.0 0.00 0.00 0.00 82 1010.6
20260506084905 16 156 1.6 1.6 0.00 0.00 0.00 83 1010.6
20260506084402 16 144 0.0 1.6 0.00 0.00 0.00 82 1010.5
20260506083858 16 137 0.0 0.0 0.00 0.00 0.00 82 1010.7
20260506083356 16 169 0.0 1.6 0.00 0.00 0.00 82 1010.7
20260506082853 16 123 0.0 0.0 0.00 0.00 0.00 82 1010.5
20260506082349 16 137 0.0 0.0 0.00 0.00 0.00 81 1010.7
20260506081845 16 125 0.0 0.0 0.00 0.00 0.00 81 1010.6
20260506081344 17 139 0.0 0.0 0.00 0.00 0.00 81 1010.5
20260506080841 17 164 1.6 1.6 0.00 0.00 0.00 80 1010.7
20260506080338 16 128 0.0 0.0 0.00 0.00 0.00 80 1010.6
20260506073322 17 134 0.0 0.0 0.00 0.00 0.00 77 1010.6
20260506072818 17 142 0.0 1.6 0.00 0.00 0.00 77 1010.6
20260506072316 17 128 0.0 0.0 0.00 0.00 0.00 76 1010.7
20260506071813 17 132 0.0 0.0 0.00 0.00 0.00 75 1010.7
20260506071312 17 136 0.0 0.0 0.00 0.00 0.00 74 1010.4
20260506070808 17 159 1.6 1.6 0.00 0.00 0.00 74 1010.5
20260506070305 17 161 1.6 1.6 0.00 0.00 0.00 74 1010.8
20260506062242 18 144 0.0 0.0 0.00 0.00 0.00 71 1010.9
20260506061738 18 138 0.0 0.0 0.00 0.00 0.00 71 1010.8
20260506061236 18 155 0.0 0.0 0.00 0.00 0.00 71 1010.7
20260506060734 18 130 0.0 0.0 0.00 0.00 0.00 71 1011.0
20260506060231 18 221 1.6 3.2 0.00 0.00 0.00 71 1010.7
20260506051203 18 199 1.6 3.2 0.00 0.00 0.00 67 1011.3
20260506050701 18 167 1.6 1.6 0.00 0.00 0.00 68 1011.3
20260506050158 18 154 0.0 0.0 0.00 0.00 0.00 68 1011.2
20260506044649 19 169 1.6 1.6 0.00 0.00 0.00 66 1011.2
20260506044145 19 146 1.6 1.6 0.00 0.00 0.00 66 1011.5
20260506043643 19 198 1.6 1.6 0.00 0.00 0.00 66 1011.6
20260506043141 19 140 3.2 3.2 0.00 0.00 0.00 65 1011.3
20260506042640 19 213 1.6 1.6 0.00 0.00 0.00 65 1011.4
20260506042137 19 241 3.2 3.2 0.00 0.00 0.00 65 1011.4
20260506041636 19 120 3.2 3.2 0.00 0.00 0.00 65 1011.5
20260506041132 19 135 1.6 1.6 0.00 0.00 0.00 65 1011.4
20260506040630 19 133 0.0 0.0 0.00 0.00 0.00 65 1011.5
20260506040126 19 144 0.0 1.6 0.00 0.00 0.00 64 1011.2
20260506035623 20 147 0.0 0.0 0.00 0.00 0.00 64 1011.2
20260506035120 20 141 3.2 3.2 0.00 0.00 0.00 64 1011.1
20260506034617 20 149 1.6 1.6 0.00 0.00 0.00 63 1011.2
20260506034114 20 82 1.6 3.2 0.00 0.00 0.00 63 1011.5
20260506033611 20 174 1.6 1.6 0.00 0.00 0.00 63 1011.4
20260506033108 20 212 1.6 3.2 0.00 0.00 0.00 63 1011.6
20260506032606 20 225 3.2 3.2 0.00 0.00 0.00 62 1011.4
20260506032102 20 243 4.8 4.8 0.00 0.00 0.00 62 1011.1
20260506031600 20 200 3.2 3.2 0.00 0.00 0.00 62 1011.3
20260506031056 20 240 3.2 3.2 0.00 0.00 0.00 61 1011.3
20260506030555 20 181 3.2 3.2 0.00 0.00 0.00 61 1011.3
20260506030052 20 264 4.8 8.0 0.00 0.00 0.00 60 1011.0
20260506025549 20 148 1.6 3.2 0.00 0.00 0.00 60 1011.3
20260506025044 20 171 3.2 4.8 0.00 0.00 0.00 60 1011.2
20260506024542 20 176 1.6 1.6 0.00 0.00 0.00 59 1011.1
20260506024038 21 152 0.0 1.6 0.00 0.00 0.00 59 1011.2
20260506023534 21 170 3.2 3.2 0.00 0.00 0.00 57 1011.2
20260506023032 21 257 3.2 4.8 0.00 0.00 0.00 56 1011.2
20260506022529 21 161 1.6 3.2 0.00 0.00 0.00 56 1011.0
20260506022027 21 127 1.6 3.2 0.00 0.00 0.00 55 1011.2
20260506021524 21 232 3.2 3.2 0.00 0.00 0.00 54 1011.2
20260506021021 21 268 1.6 3.2 0.00 0.00 0.00 53 1011.1
20260506020519 21 170 1.6 1.6 0.00 0.00 0.00 52 1011.1
20260506020016 21 169 1.6 1.6 0.00 0.00 0.00 51 1011.1
20260506015513 22 131 1.6 1.6 0.00 0.00 0.00 50 1010.9
20260506015010 22 242 4.8 4.8 0.00 0.00 0.00 50 1010.8
20260506014508 22 178 1.6 3.2 0.00 0.00 0.00 49 1010.9
20260506014003 22 256 4.8 8.0 0.00 0.00 0.00 49 1011.0
20260506013501 22 128 0.0 1.6 0.00 0.00 0.00 49 1010.9
20260506012957 22 160 1.6 1.6 0.00 0.00 0.00 48 1010.8
20260506012454 22 145 0.0 0.0 0.00 0.00 0.00 48 1010.9
20260506011951 22 160 1.6 1.6 0.00 0.00 0.00 47 1010.6
20260506011448 22 226 3.2 3.2 0.00 0.00 0.00 47 1010.6
20260506010945 22 112 1.6 1.6 0.00 0.00 0.00 47 1010.6
20260506010444 22 140 1.6 1.6 0.00 0.00 0.00 47 1010.5
20260506005939 22 215 3.2 4.8 0.00 0.00 0.00 47 1010.4
20260506005438 22 160 1.6 1.6 0.00 0.00 0.00 46 1010.5
20260506004932 23 151 3.2 4.8 0.00 0.00 0.00 45 1010.4
20260506004431 23 208 4.8 4.8 0.00 0.00 0.00 44 1010.4
20260506003926 23 208 0.0 1.6 0.00 0.00 0.00 45 1010.2
20260506003423 23 230 1.6 3.2 0.00 0.00 0.00 44 1010.2
20260506002920 23 133 1.6 1.6 0.00 0.00 0.00 43 1010.2
20260506002416 23 148 0.0 1.6 0.00 0.00 0.00 43 1010.1
20260506001911 23 151 1.6 1.6 0.00 0.00 0.00 42 1009.8
20260506001409 23 161 1.6 1.6 0.00 0.00 0.00 41 1010.0
20260506000906 23 160 1.6 3.2 0.00 0.00 0.00 41 1010.1
20260506000403 23 134 0.0 1.6 0.00 0.00 0.00 40 1010.0
20260505235900 23 242 1.6 3.2 0.00 0.00 0.00 41 1010.0
20260505235358 23 146 1.6 1.6 0.00 0.00 0.00 40 1010.1
20260505234854 24 150 1.6 1.6 0.00 0.00 0.00 40 1009.8
20260505234352 24 189 1.6 3.2 0.00 0.00 0.00 39 1009.7
20260505233848 24 139 1.6 1.6 0.00 0.00 0.00 40 1009.8
20260505233347 24 126 1.6 1.6 0.00 0.00 0.00 39 1010.0
20260505232844 24 226 3.2 3.2 0.00 0.00 0.00 37 1009.5
20260505232342 24 121 3.2 3.2 0.00 0.00 0.00 38 1009.7
20260505231838 24 139 3.2 3.2 0.00 0.00 0.00 38 1009.6
20260505231336 24 124 1.6 1.6 0.00 0.00 0.00 38 1009.5
20260505230834 24 196 3.2 3.2 0.00 0.00 0.00 37 1009.4
20260505230331 24 194 1.6 1.6 0.00 0.00 0.00 37 1009.6
20260505225827 25 201 1.6 3.2 0.00 0.00 0.00 37 1009.6
20260505225324 25 248 3.2 3.2 0.00 0.00 0.00 36 1009.1
20260505224819 25 206 3.2 4.8 0.00 0.00 0.00 36 1009.1
20260505224318 25 191 1.6 1.6 0.00 0.00 0.00 35 1009.1
20260505223814 25 130 3.2 4.8 0.00 0.00 0.00 35 1009.1
20260505223312 25 209 1.6 3.2 0.00 0.00 0.00 36 1009.2
20260505222807 25 114 3.2 3.2 0.00 0.00 0.00 36 1008.9
20260505222305 25 208 1.6 3.2 0.00 0.00 0.00 35 1009.1
20260505221801 26 223 3.2 3.2 0.00 0.00 0.00 34 1009.2
20260505221257 26 132 1.6 1.6 0.00 0.00 0.00 34 1009.0
20260505220754 26 188 3.2 3.2 0.00 0.00 0.00 35 1009.1
20260505220251 25 234 3.2 4.8 0.00 0.00 0.00 34 1009.3
20260505215750 25 195 3.2 3.2 0.00 0.00 0.00 34 1008.9
20260505215247 25 145 0.0 0.0 0.00 0.00 0.00 35 1008.9
20260505214745 26 141 1.6 1.6 0.00 0.00 0.00 34 1008.7
20260505214242 26 186 3.2 3.2 0.00 0.00 0.00 34 1008.7
20260505213739 26 117 1.6 1.6 0.00 0.00 0.00 34 1008.9
20260505213236 26 165 3.2 3.2 0.00 0.00 0.00 32 1008.9
20260505212732 26 244 3.2 3.2 0.00 0.00 0.00 33 1008.7
20260505212230 26 225 4.8 9.7 0.00 0.00 0.00 33 1008.6
20260505211726 26 181 1.6 3.2 0.00 0.00 0.00 32 1008.5
20260505211224 26 339 6.4 9.7 0.00 0.00 0.00 31 1008.4
20260505210720 26 174 1.6 3.2 0.00 0.00 0.00 34 1008.4
20260505210217 26 156 3.2 3.2 0.00 0.00 0.00 34 1008.4
20260505205714 26 284 8.0 11.3 0.00 0.00 0.00 33 1008.2
20260505205213 26 158 4.8 8.0 0.00 0.00 0.00 34 1008.5
20260505204709 27 327 4.8 4.8 0.00 0.00 0.00 34 1008.2
20260505204207 27 253 9.7 11.3 0.00 0.00 0.00 32 1008.5
20260505203704 27 270 4.8 4.8 0.00 0.00 0.00 34 1008.7
20260505203201 27 198 4.8 8.0 0.00 0.00 0.00 34 1008.6
20260505202656 27 175 6.4 8.0 0.00 0.00 0.00 33 1008.7
20260505202153 27 221 4.8 4.8 0.00 0.00 0.00 35 1008.9
20260505201649 27 235 4.8 4.8 0.00 0.00 0.00 35 1008.6
20260505201147 27 205 1.6 3.2 0.00 0.00 0.00 35 1008.6
20260505200645 27 241 6.4 9.7 0.00 0.00 0.00 33 1008.7
20260505200141 27 213 4.8 4.8 0.00 0.00 0.00 33 1008.6
20260505195637 28 191 3.2 3.2 0.00 0.00 0.00 35 1008.7
20260505195135 27 248 6.4 8.0 0.00 0.00 0.00 34 1008.6
20260505194632 27 249 8.0 17.7 0.00 0.00 0.00 33 1008.7
20260505194128 27 223 1.6 3.2 0.00 0.00 0.00 34 1009.0
20260505193625 27 250 4.8 8.0 0.00 0.00 0.00 35 1009.0
20260505193122 27 222 8.0 14.5 0.00 0.00 0.00 34 1009.0
20260505192621 27 282 6.4 9.7 0.00 0.00 0.00 34 1009.1
20260505192117 27 154 3.2 4.8 0.00 0.00 0.00 33 1009.0
20260505191616 28 266 4.8 8.0 0.00 0.00 0.00 33 1009.0
20260505191113 28 157 4.8 4.8 0.00 0.00 0.00 34 1009.0
20260505190609 28 246 3.2 3.2 0.00 0.00 0.00 35 1009.2
20260505190104 28 102 4.8 8.0 0.00 0.00 0.00 35 1009.4
20260505185601 28 231 1.6 3.2 0.00 0.00 0.00 36 1009.4
20260505185057 28 165 4.8 8.0 0.00 0.00 0.00 35 1009.1
20260505184554 28 223 1.6 3.2 0.00 0.00 0.00 37 1009.5
20260505184051 28 232 3.2 4.8 0.00 0.00 0.00 37 1009.7
20260505183547 28 186 3.2 3.2 0.00 0.00 0.00 37 1009.7
20260505183045 28 222 3.2 3.2 0.00 0.00 0.00 35 1009.8
20260505182541 29 273 3.2 4.8 0.00 0.00 0.00 34 1009.7
20260505182038 28 290 1.6 1.6 0.00 0.00 0.00 36 1009.7
20260505181535 27 136 0.0 1.6 0.00 0.00 0.00 38 1009.6
20260505181032 27 180 1.6 1.6 0.00 0.00 0.00 39 1010.0
20260505180528 27 246 3.2 3.2 0.00 0.00 0.00 38 1010.2
20260505180026 27 148 1.6 1.6 0.00 0.00 0.00 39 1010.2
20260505175520 28 74 3.2 3.2 0.00 0.00 0.00 37 1009.8
20260505175018 28 264 4.8 4.8 0.00 0.00 0.00 38 1010.2
20260505174515 27 164 0.0 1.6 0.00 0.00 0.00 43 1010.3
20260505174011 27 199 1.6 1.6 0.00 0.00 0.00 42 1010.3
20260505173508 27 286 4.8 11.3 0.00 0.00 0.00 41 1010.3
20260505173004 27 181 3.2 3.2 0.00 0.00 0.00 39 1010.4
20260505172502 28 170 1.6 1.6 0.00 0.00 0.00 41 1010.4
20260505171957 27 127 0.0 1.6 0.00 0.00 0.00 42 1010.5
20260505171453 27 197 1.6 1.6 0.00 0.00 0.00 43 1010.6
20260505170950 27 224 3.2 4.8 0.00 0.00 0.00 42 1010.5
20260505170447 27 199 4.8 4.8 0.00 0.00 0.00 41 1010.7
20260505165942 26 15 3.2 4.8 0.00 0.00 0.00 45 1010.5
20260505165438 26 205 8.0 9.7 0.00 0.00 0.00 43 1010.6
20260505164934 26 259 4.8 8.0 0.00 0.00 0.00 44 1010.8
20260505164431 26 313 4.8 8.0 0.00 0.00 0.00 45 1010.8
20260505163929 26 102 3.2 3.2 0.00 0.00 0.00 46 1010.8
20260505163427 26 157 1.6 3.2 0.00 0.00 0.00 44 1010.9
20260505162926 26 242 6.4 8.0 0.00 0.00 0.00 45 1010.9
20260505162421 26 155 1.6 1.6 0.00 0.00 0.00 45 1011.0
20260505161919 26 153 1.6 3.2 0.00 0.00 0.00 45 1011.0
20260505161415 26 158 0.0 1.6 0.00 0.00 0.00 46 1011.2
20260505160913 26 163 1.6 1.6 0.00 0.00 0.00 45 1011.1
20260505160411 26 170 1.6 3.2 0.00 0.00 0.00 47 1011.3
20260505153349 25 257 3.2 3.2 0.00 0.00 0.00 48 1011.6
20260505152846 25 171 1.6 1.6 0.00 0.00 0.00 48 1011.5
20260505152343 25 178 3.2 3.2 0.00 0.00 0.00 48 1011.8
20260505151837 25 129 0.0 0.0 0.00 0.00 0.00 50 1011.9
20260505151335 25 153 1.6 3.2 0.00 0.00 0.00 49 1011.8
20260505150831 25 127 0.0 0.0 0.00 0.00 0.00 50 1011.8
20260505150329 23 124 1.6 1.6 0.00 0.00 0.00 51 1011.7